Torna al catalogo

ZHIHUI TIANWANG-1 01B

AttivoComunicazioniHEO
NORAD 59706·PAYLOAD·🇨🇳 China

Lanciato May 9, 2024 da Xichang Satellite Launch Center

Loading…

Prossimi Passaggi (prossime 24 ore)

TLE

AggiornatoSource: Space-Track

Epoca: Sep 13, 2026, 21:06 UTC

1 59706U 24087B   26256.87957495  .00000006  00000-0  00000-0 0  9999
2 59706  53.1270 166.9266 0027237 202.0464 157.8763  2.00561154 16730

Traccia ZHIHUI TIANWANG-1 01B in tempo reale con AllMySat

Download on the App Store